Regional Weather Roundup
Issued by NWS

Home | Current Version | Previous Version | Text Only | Print | Product List | Glossary On
Versions: 1 2 3 4 5 6 7 8 9 10 11 12 13 14 15 16 17 18 19 20 21 22 23 24 25 26 27 28 29 30 31 32 33 34 35 36 37 38 39 40 41 42 43 44 45 46 47 48 49 50
000
ASUS43 KIND 311559
RWRIN

WEATHER ROUNDUP FOR INDIANA
NATIONAL WEATHER SERVICE INDIANAPOLIS IN
1200 PM EDT THU JUL 31 2014

NOTE: "FAIR" INDICATES FEW OR NO CLOUDS BELOW 12,000 FEET WITH NO
SIGNIFICANT WEATHER AND/OR OBSTRUCTIONS TO VISIBILITY.

* - STATION DOES NOT REPORT WEATHER SUCH AS PRECIPITATION OR FOG.

+ - STATION NOT QUALITY CONTROLLED BY THE NATIONAL WEATHER SERVICE.
    USE DATA WITH CAUTION...ESPECIALLY DEWPOINT AND RELATIVE
    HUMIDITY OBSERVATIONS.

INZ001>003-010>013-019-020-311700-
NORTHWEST INDIANA

CITY           SKY/WX    TMP DP  RH WIND       PRES   REMARKS
GARY /AIRPORT/ SUNNY     79  57  47 SW10      30.06S
KNOX *+        PTSUNNY   76  56  50 W8        30.06S
MONTICELLO +   SUNNY     74  62  64 W5        30.07S
RENSSELAER +   SUNNY     73  63  68 W5        30.09S
VALPARAISO     MOSUNNY   77  58  51 W12       30.07S

$$

LMZ046-743>745-311700-
SOUTHERN LAKE MICHIGAN

STATION/POSITION TIME  TEMP WIND        PRES
                       AIR  DIR/SP/G
                 (UTC) (F)  (DEG/KT/KT) (MB)
MICHIGAN CITY    1500   71  200/  8/  9   N/A

$$

INZ004-005-014>016-021>024-311700-
NORTH CENTRAL INDIANA

CITY           SKY/WX    TMP DP  RH WIND       PRES   REMARKS
GOSHEN         SUNNY     75  59  57 W10       30.06S
SOUTH BEND     MOSUNNY   76  59  55 SW8       30.06S
WARSAW +       SUNNY     75  59  57 W8        30.07S

$$

INZ006>009-017-018-025>027-311700-
NORTHEAST INDIANA

CITY           SKY/WX    TMP DP  RH WIND       PRES   REMARKS
ANGOLA *+      SUNNY     75  66  73 W9        30.06S
FORT WAYNE     MOSUNNY   76  59  55 W12       30.08S

$$

INZ028-029-035-036-043>045-051>053-311700-
WEST CENTRAL INDIANA

CITY           SKY/WX    TMP DP  RH WIND       PRES   REMARKS
GREENCASTLE +  SUNNY     75  61  60 CALM      30.11S
LAFAYETTE      SUNNY     76  60  57 W8        30.08S
TERRE HAUTE    SUNNY     78  60  53 SW8       30.10S

$$

INZ030>032-037>040-046>048-054>057-064-065-311700-
CENTRAL INDIANA

CITY           SKY/WX    TMP DP  RH WIND       PRES   REMARKS
COLUMBUS       SUNNY     75  63  64 NW5       30.11S
INDIANAPOLIS   MOSUNNY   75  61  61 SW6       30.10S
-EAGLE CREEK   SUNNY     76  59  55 W5        30.10R
KOKOMO *+      SUNNY     75  61  60 W9        30.09S
MT COMFORT *+  MOSUNNY   77  66  69 W8        30.10S
SHELBYVILLE    SUNNY     77  64  64 W9        30.10S

$$

INZ033-034-041-042-049-050-058-059-311700-
EAST CENTRAL INDIANA

CITY           SKY/WX    TMP DP  RH WIND       PRES   REMARKS
MUNCIE         MOSUNNY   75  59  57 W8        30.10R

$$

INZ060-061-067>069-081>083-085>088-311700-
SOUTHWEST INDIANA

CITY           SKY/WX    TMP DP  RH WIND       PRES   REMARKS
EVANSVILLE     SUNNY     78  60  53 VRB3      30.11S

$$

INZ062-063-066-070>080-084-089>092-311700-
SOUTH CENTRAL AND SOUTHEAST INDIANA

CITY           SKY/WX    TMP DP  RH WIND       PRES   REMARKS
BLOOMINGTON    SUNNY     77  59  53 NW6       30.11S
SEYMOUR +      SUNNY     75  46  35 SW3       30.11

$$




USA.gov is the U.S. government's official web portal to all federal, state and local government web resources and services.